EW4784 Weather Reports


Display with metric or nautical units.
time (UTC)temp
F
wind
direction
speed
MPH
gust
MPH
rain 1hr
in
rain 24hr
in
rain mn
in
humidity
%
barometer
mb
20260503060123 37 285 1.0 5.0 0.00 0.00 0.00 68
20260503055121 37 262 1.0 6.0 0.00 0.00 0.00 67
20260503054641 37 278 0.0 5.0 0.00 0.00 0.00 66
20260503054118 38 280 0.0 5.0 0.00 0.00 0.00 66
20260503053617 38 276 1.0 7.0 0.00 0.00 0.00 66
20260503053116 38 280 2.0 12.0 0.00 0.00 0.00 66
20260503052616 38 279 2.0 6.0 0.00 0.00 0.00 66
20260503052135 38 287 0.0 7.0 0.00 0.00 0.00 66
20260503051614 38 252 0.0 4.0 0.00 0.00 0.00 66
20260503051134 38 279 1.0 8.0 0.00 0.00 0.00 65
20260503050612 38 266 1.0 5.0 0.00 0.00 0.00 65
20260503050110 38 284 1.0 7.0 0.00 0.00 0.00 65
20260503045630 38 273 1.0 8.0 0.00 0.00 0.00 64
20260503045108 38 281 1.0 4.0 0.00 0.00 0.00 65
20260503044608 39 267 1.0 7.0 0.00 0.00 0.00 64
20260503044106 38 272 1.0 10.0 0.00 0.00 0.00 65
20260503043606 39 261 2.0 10.0 0.00 0.00 0.00 65
20260503043105 39 271 1.0 7.0 0.00 0.00 0.00 65
20260503042604 39 266 3.0 13.0 0.00 0.00 0.00 66
20260503042103 38 258 1.0 6.0 0.00 0.00 0.00 66
20260503041601 38 260 2.0 10.0 0.00 0.00 0.00 68
20260503041100 38 263 2.0 9.0 0.00 0.00 0.00 69
20260503040600 38 266 1.0 4.0 0.00 0.00 0.00 68
20260503040059 38 260 1.0 7.0 0.00 0.00 0.00 68
20260503035558 38 245 0.0 2.0 0.00 0.00 0.00 68
20260503035056 38 249 1.0 6.0 0.00 0.00 0.00 69
20260503034556 39 247 1.0 5.0 0.00 0.00 0.00 68
20260503034054 39 255 1.0 7.0 0.00 0.00 0.00 68
20260503033554 38 245 0.0 3.0 0.00 0.00 0.00 69
20260503033052 39 245 0.0 1.0 0.00 0.00 0.00 68
20260503032551 39 247 0.0 2.0 0.00 0.00 0.00 68
20260503032050 39 251 0.0 3.0 0.00 0.00 0.00 67
20260503031550 39 251 0.0 0.0 0.00 0.00 0.00 67
20260503031048 39 251 0.0 2.0 0.00 0.00 0.00 66
20260503030547 39 253 0.0 3.0 0.00 0.00 0.00 66
20260503030046 39 252 0.0 1.0 0.00 0.00 0.00 66
20260503025545 39 253 0.0 0.0 0.00 0.00 0.00 64
20260503025044 40 253 0.0 0.0 0.00 0.00 0.00 64
20260503024543 40 254 0.0 2.0 0.00 0.00 0.00 63
20260503024042 40 257 0.0 3.0 0.00 0.00 0.00 62
20260503023602 40 262 0.0 6.0 0.00 0.00 0.00 61
20260503023041 40 236 0.0 4.0 0.00 0.00 0.00 62
20260503022539 40 250 0.0 1.0 0.00 0.00 0.00 62
20260503022038 40 246 0.0 0.0 0.00 0.00 0.00 61
20260503021538 40 245 0.0 0.0 0.00 0.00 0.00 61
20260503021057 40 249 0.0 3.0 0.00 0.00 0.00 63
20260503020536 40 244 0.0 3.0 0.00 0.00 0.00 62
20260503020034 40 244 0.0 0.0 0.00 0.00 0.00 61
20260503015533 40 244 0.0 0.0 0.00 0.00 0.00 61
20260503015032 40 247 0.0 0.0 0.00 0.00 0.00 61
20260503014531 41 251 0.0 1.0 0.00 0.00 0.00 60
20260503014030 41 252 0.0 0.0 0.00 0.00 0.00 59
20260503013550 41 251 0.0 0.0 0.00 0.00 0.00 56
20260503013028 42 251 0.0 0.0 0.00 0.00 0.00 56
20260503012527 42 251 0.0 0.0 0.00 0.00 0.00 56
20260503012026 42 252 0.0 3.0 0.00 0.00 0.00 55
20260503011525 42 253 0.0 0.0 0.00 0.00 0.00 54
20260503011024 43 252 0.0 0.0 0.00 0.00 0.00 53
20260503010523 43 252 0.0 0.0 0.00 0.00 0.00 52
20260503010022 44 252 0.0 0.0 0.00 0.00 0.00 51
20260503005522 44 253 0.0 0.0 0.00 0.00 0.00 49
20260503005020 44 256 0.0 2.0 0.00 0.00 0.00 49
20260503004540 45 253 2.0 9.0 0.00 0.00 0.00 48
20260503004017 45 278 3.0 8.0 0.00 0.00 0.00 48
20260503003538 45 260 1.0 5.0 0.00 0.00 0.00 48
20260503003016 45 292 1.0 4.0 0.00 0.00 0.00 47
20260503002515 45 280 3.0 13.0 0.00 0.00 0.00 47
20260503002015 46 273 2.0 9.0 0.00 0.00 0.00 47
20260503001513 46 324 4.0 13.0 0.00 0.00 0.00 46
20260503001012 46 311 3.0 11.0 0.00 0.00 0.00 47
20260503000511 46 261 2.0 9.0 0.00 0.00 0.00 47
20260503000010 46 290 3.0 12.0 0.00 0.00 0.00 47
20260502235529 46 312 3.0 11.0 0.00 0.00 0.00 47
20260502235008 46 345 1.0 5.0 0.00 0.00 0.00 47
20260502234527 46 355 4.0 10.0 0.00 0.00 0.00 46
20260502234006 46 8 5.0 10.0 0.00 0.00 0.00 46
20260502233505 47 357 3.0 8.0 0.00 0.00 0.00 45
20260502233004 47 343 6.0 16.0 0.00 0.00 0.00 45
20260502232503 47 348 5.0 11.0 0.00 0.00 0.00 45
20260502232023 47 311 4.0 9.0 0.00 0.00 0.00 45
20260502231502 47 358 4.0 10.0 0.00 0.00 0.00 47
20260502230959 47 1 7.0 15.0 0.00 0.00 0.00 47
20260502230519 47 345 8.0 21.0 0.00 0.00 0.00 45
20260502225958 48 305 9.0 16.0 0.00 0.00 0.00 44
20260502225457 49 321 8.0 14.0 0.00 0.00 0.00 41
20260502225016 51 313 8.0 15.0 0.00 0.00 0.00 41
20260502224455 50 305 6.0 15.0 0.00 0.00 0.00 43
20260502224015 48 5 8.0 15.0 0.00 0.00 0.00 44
20260502223453 48 7 10.0 15.0 0.00 0.00 0.00 44
20260502222952 48 353 9.0 18.0 0.00 0.00 0.00 44
20260502222451 48 350 9.0 17.0 0.00 0.00 0.00 44
20260502221950 48 312 4.0 13.0 0.00 0.00 0.00 44
20260502221449 49 331 7.0 14.0 0.00 0.00 0.00 45
20260502220948 49 330 9.0 23.0 0.00 0.00 0.00 43
20260502220446 49 348 6.0 15.0 0.00 0.00 0.00 43
20260502215946 49 329 7.0 16.0 0.00 0.00 0.00 42
20260502215506 50 338 10.0 20.0 0.00 0.00 0.00 42
20260502214944 49 342 11.0 19.0 0.00 0.00 0.00 42
20260502214443 47 349 10.0 21.0 0.00 0.00 0.00 44
20260502213941 48 348 13.0 22.0 0.00 0.00 0.00 45
20260502213441 48 344 9.0 15.0 0.00 0.00 0.00 44
20260502212940 48 325 7.0 15.0 0.00 0.00 0.00 44
20260502212459 48 351 8.0 15.0 0.00 0.00 0.00 45
20260502211938 47 354 13.0 22.0 0.00 0.00 0.00 45
20260502211458 47 324 11.0 23.0 0.00 0.00 0.00 44
20260502210935 48 317 10.0 24.0 0.00 0.00 0.00 44
20260502210435 47 340 8.0 23.0 0.00 0.00 0.00 45
20260502210025 47 343 10.0 17.0 0.00 0.00 0.00 46
20260502205954 47 343 10.0 17.0 0.00 0.00 0.00 46
20260502205433 47 356 12.0 22.0 0.00 0.00 0.00 46
20260502204932 47 326 11.0 20.0 0.00 0.00 0.00 45
20260502204430 47 327 6.0 14.0 0.00 0.00 0.00 45
20260502203930 48 318 10.0 24.0 0.00 0.00 0.00 43
20260502203429 49 335 6.0 15.0 0.00 0.00 0.00 44
20260502202949 48 347 7.0 14.0 0.00 0.00 0.00 44
20260502202427 48 339 10.0 20.0 0.00 0.00 0.00 44
20260502201925 47 323 11.0 21.0 0.00 0.00 0.00 46
20260502201425 47 336 8.0 23.0 0.00 0.00 0.00 47
20260502200924 47 318 12.0 26.0 0.00 0.00 0.00 46
20260502200423 47 350 11.0 20.0 0.00 0.00 0.00 45
20260502195942 47 327 12.0 21.0 0.00 0.00 0.00 43
20260502195421 47 312 8.0 17.0 0.00 0.00 0.00 45
20260502194919 47 319 12.0 20.0 0.00 0.00 0.00 45
20260502194418 47 328 11.0 23.0 0.00 0.00 0.00 46
20260502193939 47 311 11.0 26.0 0.00 0.00 0.00 45
20260502193416 47 312 7.0 15.0 0.00 0.00 0.00 46
20260502192916 47 332 11.0 25.0 0.00 0.00 0.00 44
20260502192435 47 343 11.0 22.0 0.00 0.00 0.00 46
20260502191913 47 325 10.0 22.0 0.00 0.00 0.00 45
20260502191412 47 329 9.0 19.0 0.00 0.00 0.00 45
20260502190911 48 331 8.0 17.0 0.00 0.00 0.00 45
20260502190410 48 296 5.0 13.0 0.00 0.00 0.00 45
20260502185909 48 338 8.0 22.0 0.00 0.00 0.00 45
20260502185408 47 316 10.0 22.0 0.00 0.00 0.00 44
20260502184908 48 341 8.0 18.0 0.00 0.00 0.00 46
20260502184406 48 352 11.0 20.0 0.00 0.00 0.00 46
20260502183927 49 313 11.0 24.0 0.00 0.00 0.00 43
20260502183425 48 0 7.0 15.0 0.00 0.00 0.00 43
20260502182903 47 332 10.0 18.0 0.00 0.00 0.00 42
20260502182423 48 329 10.0 19.0 0.00 0.00 0.00 43
20260502181901 48 322 11.0 21.0 0.00 0.00 0.00 43
20260502181400 48 328 7.0 16.0 0.00 0.00 0.00 43
20260502180921 49 313 9.0 23.0 0.00 0.00 0.00 42
20260502180358 50 337 12.0 21.0 0.00 0.00 0.00 40
20260502170346 49 310 9.0 22.0 0.00 0.00 0.00 42
20260502163841 47 333 6.0 14.0 0.00 0.00 0.00 43
20260502163340 47 350 14.0 26.0 0.00 0.00 0.00 43
20260502162900 47 335 16.0 26.0 0.00 0.00 0.00 42
20260502162338 48 316 11.0 23.0 0.00 0.00 0.00 41
20260502161837 47 338 7.0 16.0 0.00 0.00 0.00 43
20260502161336 47 352 12.0 22.0 0.00 0.00 0.00 44
20260502160835 48 341 11.0 26.0 0.00 0.00 0.00 42
20260502160334 49 339 12.0 21.0 0.00 0.00 0.00 42
20260502152326 47 4 8.0 14.0 0.00 0.00 0.00 46
20260502151825 46 348 11.0 18.0 0.00 0.00 0.00 50
20260502151324 45 358 10.0 21.0 0.00 0.00 0.00 48
20260502150823 47 355 11.0 25.0 0.00 0.00 0.00 48
20260502150322 48 354 12.0 22.0 0.00 0.00 0.00 47
20260502130257 42 10 7.0 14.0 0.00 0.00 0.00 69
20260502123813 41 358 5.0 15.0 0.00 0.00 0.00 75
20260502123252 40 6 6.0 11.0 0.00 0.00 0.00 76
20260502122750 40 18 5.0 11.0 0.00 0.00 0.00 77
20260502122249 39 3 5.0 9.0 0.00 0.00 0.00 79
20260502121748 39 350 9.0 13.0 0.00 0.00 0.00 80
20260502121247 38 348 8.0 16.0 0.00 0.00 0.00 82
20260502120746 38 357 12.0 17.0 0.00 0.00 0.00 84
20260502120245 38 10 7.0 14.0 0.00 0.00 0.00 85
20260502115745 38 338 5.0 11.0 0.00 0.00 0.00 85
20260502115244 37 355 4.0 8.0 0.00 0.00 0.00 85
20260502114743 37 354 7.0 12.0 0.00 0.00 0.00 85
20260502114302 37 353 6.0 13.0 0.00 0.00 0.00 87
20260502113741 36 355 5.0 10.0 0.00 0.00 0.00 88
20260502113239 36 356 4.0 10.0 0.00 0.00 0.00 89
20260502112738 35 2 4.0 7.0 0.00 0.00 0.00 91
20260502112237 35 4 2.0 6.0 0.00 0.00 0.00 91
20260502111736 34 9 0.0 3.0 0.00 0.00 0.00 91
20260502111236 34 277 0.0 0.0 0.00 0.00 0.00 90
20260502110734 34 275 0.0 0.0 0.00 0.00 0.00 90
20260502110254 34 274 0.0 0.0 0.00 0.00 0.00 90
20260502105753 34 274 0.0 0.0 0.00 0.00 0.00 90
20260502105253 34 274 0.0 0.0 0.00 0.00 0.00 89
20260502104752 34 274 0.0 0.0 0.00 0.00 0.00 89
20260502104229 34 274 0.0 0.0 0.00 0.00 0.00 89
20260502103728 34 274 0.0 0.0 0.00 0.00 0.00 89
20260502103227 34 274 0.0 0.0 0.00 0.00 0.00 88
20260502102726 34 257 0.0 0.0 0.00 0.00 0.00 88
20260502102226 34 244 0.0 0.0 0.00 0.00 0.00 88
20260502101726 34 244 0.0 0.0 0.00 0.00 0.00 88
20260502101223 35 244 0.0 0.0 0.00 0.00 0.00 87
20260502100722 35 244 0.0 0.0 0.00 0.00 0.00 87
20260502100221 35 244 0.0 0.0 0.00 0.00 0.00 87
20260502091232 36 244 0.0 0.0 0.00 0.00 0.00 84
20260502090731 36 244 0.0 0.0 0.00 0.00 0.00 84
20260502090209 36 244 0.0 0.0 0.00 0.00 0.00 84
20260502071146 37 149 0.0 0.0 0.00 0.00 0.00 81
20260502070646 37 160 1.0 7.0 0.00 0.00 0.00 80
20260502070145 37 162 2.0 6.0 0.00 0.00 0.00 80
20260502065644 37 161 3.0 7.0 0.00 0.00 0.00 80
20260502065143 37 176 1.0 5.0 0.00 0.00 0.00 80
20260502064643 37 167 1.0 4.0 0.00 0.00 0.00 79
20260502064141 37 165 1.0 4.0 0.00 0.00 0.00 79
20260502063640 37 179 2.0 8.0 0.00 0.00 0.00 79